Date,TemperatureHighF,TemperatureAvgF,TemperatureLowF,DewpointHighF,DewpointAvgF,DewpointLowF,HumidityHigh,HumidityAvg,HumidityLow,PressureMaxIn,PressureMinIn,WindSpeedMaxMPH,WindSpeedAvgMPH,GustSpeedMaxMPH,PrecipitationSumIn
2013-5-1,81,75,68,73,70,66,95,86,72,29.91,29.83,28,2,28,0.45
2013-5-2,76,72,67,71,69,65,96,89,79,29.85,29.73,28,10,28,1.97
2013-5-3,82,74,69,73,69,66,94,85,70,29.74,29.56,29,8,29,0.48
2013-5-4,82,74,67,72,68,66,96,84,60,29.69,29.58,20,3,20,0.00
2013-5-5,78,71,66,69,57,42,95,65,28,29.82,29.64,24,7,24,0.00
2013-5-6,79,70,62,64,58,52,84,66,45,29.90,29.80,25,10,25,0.00
2013-5-7,79,69,59,60,56,54,85,65,45,29.95,29.86,24,8,24,0.00
2013-5-8,80,72,63,68,63,59,88,74,53,30.02,29.92,14,5,14,0.00
2013-5-9,76,72,68,72,67,60,90,83,71,30.06,29.98,17,4,17,0.00
2013-5-10,82,77,75,76,72,69,91,85,77,30.04,29.92,25,6,25,0.01
2013-5-11,87,76,69,76,72,67,96,87,57,29.98,29.85,36,8,36,1.20
2013-5-12,86,77,71,76,72,69,94,86,68,29.94,29.85,19,6,19,3.95
2013-5-13,75,73,69,72,66,58,92,80,61,30.01,29.88,23,7,23,0.00
2013-5-14,79,74,73,60,58,53,63,56,50,30.09,29.99,21,6,21,0.00
2013-5-15,83,76,73,66,62,58,72,62,50,30.11,30.01,15,2,15,0.00
2013-5-16,81,76,71,66,63,60,74,65,55,30.04,29.94,20,5,20,0.00
2013-5-17,86,78,73,71,68,64,83,73,60,30.00,29.92,20,3,20,0.00
2013-5-18,82,78,74,75,72,69,89,82,74,30.02,29.94,25,8,25,0.00
2013-5-19,78,77,75,72,71,70,86,81,77,30.01,29.91,21,8,21,0.00
2013-5-20,79,76,72,73,71,69,93,86,80,29.99,29.90,23,4,23,0.02
2013-5-21,81,75,71,74,71,68,93,86,75,29.94,29.85,30,7,30,0.10
2013-5-22,84,77,74,75,72,70,91,86,73,29.88,29.81,21,5,21,0.00
2013-5-23,84,78,72,75,73,70,95,86,74,29.90,29.81,15,3,15,0.00
2013-5-24,89,79,71,77,73,68,92,82,65,29.98,29.85,15,3,15,0.00
2013-5-25,82,78,75,75,67,60,88,69,51,30.09,29.96,22,8,22,0.00
2013-5-26,79,75,72,68,64,60,75,69,63,30.11,30.03,19,4,19,0.00
2013-5-27,82,78,74,72,68,62,82,72,66,30.08,30.00,17,5,17,0.00
2013-5-28,82,78,73,74,72,70,93,82,75,30.03,29.97,24,7,24,0.24
2013-5-29,82,78,74,75,73,70,93,85,75,30.03,29.94,34,8,34,0.11
2013-5-30,83,79,77,75,73,70,88,81,70,30.01,29.94,27,10,27,0.03
2013-5-31,82,79,77,75,73,69,86,81,76,30.00,29.94,26,9,26,0.00